When you browse on this site, cookies collect data to enhance your experience and personalize the content and advertising you see.
Visit our Privacy Policy to learn more. By continuing to use the site, you agree to this use of cookies and data.
  • Em Portugal
  • Lista de países
  • Para 7 dias
  • Temperatura da água
  • Mapas de satélite
  • Mapa do tempo
  • Widgets de tempo
  • user-avatar
    Iniciar Sessão

    Previsão horária em Bozatki

    Hoje, 22 Abril, Segunda-feira

    Tempo Temperatura Precipitação Vento Pressão Humidade
    00:00 +7°C° 0 mm 3 m/s 756 mmHg 80%
    01:00 +5°C° 0 mm 3 m/s 756 mmHg 87%
    02:00 +4°C° 0 mm 3 m/s 756 mmHg 89%
    03:00 +4°C° 0 mm 3 m/s 756 mmHg 90%
    04:00 +3°C° 0 mm 3 m/s 756 mmHg 91%
    05:00 +4°C° 0 mm 4 m/s 756 mmHg 87%
    06:00 +5°C° 0 mm 4 m/s 756 mmHg 83%
    07:00 +6°C° 0 mm 5 m/s 757 mmHg 78%
    08:00 +7°C° 0 mm 6 m/s 757 mmHg 75%
    09:00 +9°C° 0 mm 6 m/s 757 mmHg 73%
    10:00 +10°C° 0 mm 6 m/s 757 mmHg 70%
    11:00 +10°C° 0 mm 7 m/s 757 mmHg 69%
    12:00 +11°C° 0 mm 7 m/s 756 mmHg 68%
    13:00 +12°C° 0 mm 7 m/s 756 mmHg 67%
    14:00 +14°C° 0 mm 7 m/s 756 mmHg 62%
    15:00 +16°C° 0 mm 7 m/s 756 mmHg 57%
    16:00 +17°C° 0 mm 7 m/s 755 mmHg 51%
    17:00 +16°C° 0 mm 7 m/s 755 mmHg 55%
    18:00 +15°C° 0 mm 7 m/s 755 mmHg 58%
    19:00 +13°C° 0 mm 6 m/s 755 mmHg 61%
    20:00 +13°C° 0 mm 6 m/s 756 mmHg 60%
    21:00 +11°C° 0 mm 7 m/s 756 mmHg 58%
    22:00 +10°C° 0 mm 7 m/s 756 mmHg 56%
    23:00 +10°C° 0 mm 7 m/s 756 mmHg 56%

    Amanhã, 23 Abril, Terça-feira

    Tempo Temperatura Precipitação Vento Pressão Humidade
    00:00 +9°C° 0 mm 7 m/s 756 mmHg 55%
    01:00 +9°C° 0 mm 7 m/s 756 mmHg 55%
    02:00 +7°C° 0 mm 8 m/s 756 mmHg 55%
    03:00 +7°C° 0 mm 8 m/s 755 mmHg 55%
    04:00 +7°C° 0 mm 8 m/s 755 mmHg 55%
    05:00 +7°C° 0 mm 9 m/s 755 mmHg 55%
    06:00 +8°C° 0 mm 9 m/s 755 mmHg 55%
    07:00 +8°C° 0 mm 10 m/s 755 mmHg 56%
    08:00 +11°C° 0 mm 10 m/s 755 mmHg 53%
    09:00 +12°C° 0 mm 10 m/s 754 mmHg 51%
    10:00 +14°C° 0 mm 10 m/s 754 mmHg 48%
    11:00 +16°C° 0 mm 10 m/s 754 mmHg 47%
    12:00 +17°C° 0 mm 10 m/s 753 mmHg 45%
    13:00 +17°C° 0 mm 10 m/s 753 mmHg 43%
    14:00 +17°C° 0 mm 10 m/s 753 mmHg 44%
    15:00 +17°C° 0 mm 10 m/s 753 mmHg 45%
    16:00 +17°C° 0 mm 10 m/s 752 mmHg 47%
    17:00 +16°C° 0 mm 9 m/s 752 mmHg 50%
    18:00 +15°C° 0 mm 8 m/s 752 mmHg 52%
    19:00 +14°C° 0 mm 7 m/s 752 mmHg 55%
    20:00 +13°C° 0 mm 8 m/s 752 mmHg 55%
    21:00 +13°C° 0 mm 8 m/s 752 mmHg 54%
    22:00 +12°C° 0 mm 8 m/s 752 mmHg 53%
    23:00 +12°C° 0.1 mm 8 m/s 752 mmHg 57%

    Depois de amanhã, 24 Abril, Quarta-feira

    Tempo Temperatura Precipitação Vento Pressão Humidade
    00:00 +11°C° 0.1 mm 8 m/s 752 mmHg 61%
    01:00 +11°C° 0.1 mm 8 m/s 752 mmHg 65%
    02:00 +10°C° 0.8 mm 7 m/s 752 mmHg 71%
    03:00 +10°C° 0.8 mm 7 m/s 752 mmHg 77%
    04:00 +9°C° 0.8 mm 7 m/s 751 mmHg 82%
    05:00 +9°C° 0.4 mm 7 m/s 752 mmHg 81%
    06:00 +10°C° 0.4 mm 6 m/s 752 mmHg 80%
    07:00 +10°C° 0.4 mm 6 m/s 752 mmHg 79%
    08:00 +11°C° 0.3 mm 7 m/s 752 mmHg 76%
    09:00 +12°C° 0.3 mm 7 m/s 752 mmHg 72%
    10:00 +14°C° 0.3 mm 7 m/s 752 mmHg 69%
    11:00 +16°C° 0 mm 6 m/s 752 mmHg 67%
    12:00 +17°C° 0 mm 6 m/s 752 mmHg 65%
    13:00 +19°C° 0 mm 5 m/s 752 mmHg 63%
    14:00 +19°C° 0 mm 5 m/s 752 mmHg 64%
    15:00 +19°C° 0 mm 4 m/s 752 mmHg 66%
    16:00 +19°C° 0 mm 4 m/s 751 mmHg 68%
    17:00 +18°C° 0 mm 4 m/s 751 mmHg 71%
    18:00 +17°C° 0 mm 3 m/s 751 mmHg 73%
    19:00 +16°C° 0 mm 3 m/s 752 mmHg 76%
    20:00 +15°C° 0 mm 4 m/s 752 mmHg 78%
    21:00 +14°C° 0 mm 4 m/s 752 mmHg 80%
    22:00 +14°C° 0 mm 4 m/s 752 mmHg 82%
    23:00 +13°C° 0 mm 4 m/s 752 mmHg 81%

    25 Abril, Quinta-feira

    Tempo Temperatura Precipitação Vento Pressão Humidade
    00:00 +13°C° 0 mm 4 m/s 752 mmHg 80%
    01:00 +13°C° 0 mm 4 m/s 752 mmHg 79%
    02:00 +13°C° 0 mm 4 m/s 752 mmHg 80%
    03:00 +12°C° 0 mm 4 m/s 752 mmHg 80%
    04:00 +12°C° 0 mm 5 m/s 752 mmHg 81%
    05:00 +13°C° 0 mm 5 m/s 752 mmHg 80%
    06:00 +14°C° 0 mm 5 m/s 752 mmHg 78%
    07:00 +15°C° 0 mm 5 m/s 752 mmHg 76%
    08:00 +17°C° 0 mm 5 m/s 753 mmHg 71%
    09:00 +19°C° 0 mm 5 m/s 753 mmHg 67%
    10:00 +21°C° 0 mm 5 m/s 753 mmHg 62%
    11:00 +22°C° 0 mm 5 m/s 753 mmHg 60%
    12:00 +22°C° 0 mm 5 m/s 752 mmHg 58%
    13:00 +23°C° 0 mm 4 m/s 752 mmHg 57%
    14:00 +23°C° 0 mm 4 m/s 752 mmHg 56%
    15:00 +24°C° 0 mm 3 m/s 752 mmHg 55%
    16:00 +25°C° 0 mm 2 m/s 752 mmHg 55%
    17:00 +23°C° 0 mm 2 m/s 752 mmHg 60%
    18:00 +21°C° 0 mm 2 m/s 752 mmHg 66%
    19:00 +19°C° 0 mm 2 m/s 752 mmHg 71%
    20:00 +19°C° 0 mm 2 m/s 752 mmHg 75%
    21:00 +18°C° 0 mm 2 m/s 752 mmHg 78%
    22:00 +17°C° 0 mm 2 m/s 752 mmHg 82%
    23:00 +16°C° 0 mm 2 m/s 752 mmHg 83%

    26 Abril, Sexta-feira

    Tempo Temperatura Precipitação Vento Pressão Humidade
    00:00 +16°C° 0 mm 2 m/s 752 mmHg 84%
    01:00 +15°C° 0 mm 2 m/s 752 mmHg 85%
    02:00 +14°C° 0.1 mm 3 m/s 751 mmHg 86%
    03:00 +14°C° 0.1 mm 3 m/s 751 mmHg 87%
    04:00 +13°C° 0.1 mm 3 m/s 751 mmHg 88%
    05:00 +16°C° 0 mm 3 m/s 750 mmHg 83%
    06:00 +17°C° 0 mm 4 m/s 750 mmHg 79%
    07:00 +18°C° 0 mm 4 m/s 750 mmHg 75%
    08:00 +20°C° 0 mm 4 m/s 749 mmHg 70%
    09:00 +21°C° 0 mm 4 m/s 749 mmHg 65%
    10:00 +22°C° 0 mm 5 m/s 749 mmHg 60%
    11:00 +23°C° 0 mm 4 m/s 748 mmHg 57%
    12:00 +25°C° 0 mm 4 m/s 748 mmHg 54%
    13:00 +27°C° 0 mm 4 m/s 748 mmHg 51%
    14:00 +27°C° 0 mm 4 m/s 747 mmHg 51%
    15:00 +27°C° 0 mm 4 m/s 747 mmHg 51%
    16:00 +27°C° 0 mm 4 m/s 747 mmHg 51%
    17:00 +25°C° 0.8 mm 4 m/s 747 mmHg 59%
    18:00 +22°C° 0.8 mm 4 m/s 747 mmHg 66%
    19:00 +20°C° 0.8 mm 4 m/s 747 mmHg 74%
    20:00 +19°C° 0.5 mm 5 m/s 748 mmHg 80%
    21:00 +16°C° 0.5 mm 6 m/s 749 mmHg 86%
    22:00 +15°C° 0.5 mm 7 m/s 749 mmHg 92%
    23:00 +14°C° 0.2 mm 7 m/s 750 mmHg 91%

    27 Abril, Sábado

    Tempo Temperatura Precipitação Vento Pressão Humidade
    00:00 +12°C° 0.2 mm 7 m/s 750 mmHg 90%
    01:00 +11°C° 0.2 mm 7 m/s 751 mmHg 89%
    02:00 +11°C° 0 mm 7 m/s 751 mmHg 89%
    03:00 +10°C° 0 mm 7 m/s 752 mmHg 89%
    04:00 +10°C° 0 mm 7 m/s 753 mmHg 89%
    05:00 +10°C° 0.1 mm 7 m/s 753 mmHg 88%
    06:00 +10°C° 0.1 mm 7 m/s 754 mmHg 87%
    07:00 +10°C° 0.1 mm 6 m/s 754 mmHg 87%
    08:00 +10°C° 0.1 mm 6 m/s 754 mmHg 85%
    09:00 +10°C° 0.1 mm 6 m/s 755 mmHg 84%
    10:00 +10°C° 0.1 mm 7 m/s 755 mmHg 83%
    11:00 +10°C° 0 mm 6 m/s 755 mmHg 81%
    12:00 +12°C° 0 mm 5 m/s 756 mmHg 79%
    13:00 +12°C° 0 mm 4 m/s 756 mmHg 77%
    14:00 +13°C° 0 mm 4 m/s 756 mmHg 73%
    15:00 +14°C° 0 mm 4 m/s 756 mmHg 69%
    16:00 +16°C° 0 mm 3 m/s 756 mmHg 65%
    17:00 +14°C° 0 mm 3 m/s 756 mmHg 68%
    18:00 +13°C° 0 mm 3 m/s 756 mmHg 70%
    19:00 +14°C° 0 mm 2 m/s 756 mmHg 73%
    20:00 +13°C° 0 mm 2 m/s 756 mmHg 75%
    21:00 +11°C° 0 mm 3 m/s 757 mmHg 77%
    22:00 +10°C° 0 mm 3 m/s 757 mmHg 79%
    23:00 +10°C° 0 mm 3 m/s 757 mmHg 81%
    Mostrar mais